EST,Max TemperatureF,Mean TemperatureF,Min TemperatureF,Max Dew PointF,MeanDew PointF,Min DewpointF,Max Humidity, Mean Humidity, Min Humidity, Max Sea Level PressureIn, Mean Sea Level PressureIn, Min Sea Level PressureIn, Max VisibilityMiles, Mean VisibilityMiles, Min VisibilityMiles, Max Wind SpeedMPH, Mean Wind SpeedMPH, Max Gust SpeedMPH,PrecipitationIn, CloudCover, Events, WindDirDegrees
2013-1-1,32,26,21,27,17,12,82,69,62,30.10,30.05,29.96,10,9,2,10,7,16,0.00,8,Snow,285
2013-1-2,23,20,16,18,13,8,86,72,65,30.25,30.16,30.05,10,8,2,10,7,,0.00,8,Snow,236
2013-1-3,28,19,10,21,14,5,80,72,60,30.23,30.16,30.05,10,9,4,18,8,24,0.00,8,Snow,216
2013-1-4,32,29,26,21,17,13,75,64,49,30.22,30.14,30.06,10,10,8,21,13,29,0.00,5,,239
2013-1-5,33,30,26,22,20,18,75,68,60,30.37,30.24,30.09,10,10,8,15,10,18,0.00,6,,204
2013-1-6,36,34,32,29,27,22,87,76,61,30.22,30.06,29.96,10,6,2,14,10,20,0.05,8,Rain-Snow,246
2013-1-7,34,31,27,28,23,20,82,72,59,30.44,30.34,30.20,10,9,5,17,7,25,0.00,5,,222
2013-1-8,37,30,24,23,20,18,78,66,52,30.34,30.30,30.26,10,8,5,12,8,,0.00,0,,186
2013-1-9,46,38,30,33,26,23,73,61,45,30.48,30.25,30.15,10,10,5,20,11,29,0.02,2,Rain,230
2013-1-10,39,31,23,28,24,19,88,70,51,30.63,30.51,30.29,10,9,4,12,3,,0.00,1,,136
2013-1-11,48,44,39,45,37,22,90,76,47,30.25,29.99,29.85,10,9,2,20,14,28,0.30,6,Rain,166
2013-1-12,59,52,45,50,47,43,93,84,72,30.03,29.99,29.90,10,7,0,13,8,,0.01,4,Fog,185
2013-1-13,63,51,39,54,47,36,93,82,70,29.96,29.85,29.76,10,8,2,20,11,40,0.22,7,Rain,258
2013-1-14,39,33,27,36,24,18,87,74,64,30.44,30.26,29.97,10,10,3,21,10,28,0.01,8,Rain,298
2013-1-15,30,28,27,20,18,15,72,67,56,30.44,30.34,30.14,10,10,10,7,3,,0.00,4,,9
2013-1-16,34,30,27,25,21,18,78,67,54,30.09,29.95,29.88,10,10,9,16,4,25,0.00,5,,222
2013-1-17,34,30,24,27,22,14,78,68,56,30.24,30.12,29.98,10,10,7,16,10,26,0.00,7,Snow,299
2013-1-18,34,26,19,15,11,4,68,56,44,30.50,30.35,30.12,10,9,2,25,13,33,0.00,6,Snow,244
2013-1-19,50,42,34,25,21,15,48,42,33,30.11,29.94,29.68,10,10,10,20,16,31,0.00,1,,215
2013-1-20,46,34,21,29,14,9,68,60,47,30.16,30.00,29.64,10,7,2,33,19,47,0.00,8,Snow,276
2013-1-21,21,16,10,14,9,1,86,74,52,30.13,29.99,29.90,10,3,0,24,11,30,0.07,8,Snow,256
2013-1-22,10,8,6,3,-1,-4,80,69,51,30.28,30.17,30.01,10,2,0,23,15,33,0.12,8,Snow,270
2013-1-23,12,9,6,7,3,1,85,78,59,30.29,30.21,30.10,10,2,0,12,8,,0.18,8,Snow,229
2013-1-24,18,12,5,10,5,-2,85,72,43,30.59,30.30,30.04,10,5,1,15,4,25,0.07,7,Snow,320
2013-1-25,16,11,6,10,6,1,80,75,67,30.53,30.22,30.06,10,8,1,8,4,,0.01,7,Snow,163
2013-1-26,25,20,15,19,15,10,86,79,68,30.47,30.23,30.06,10,3,1,10,4,,0.02,8,Snow,264
2013-1-27,28,21,14,21,14,9,88,70,53,30.56,30.45,30.28,10,7,2,12,5,,0.02,5,Snow,169
2013-1-28,44,35,26,41,34,21,93,87,80,30.27,30.04,29.91,10,4,0,21,11,28,0.23,8,Fog-Rain-Snow,196
2013-1-29,59,48,36,51,42,34,93,88,67,30.06,29.93,29.67,10,3,0,20,5,26,0.22,8,Fog-Rain,177
2013-1-30,61,49,37,54,48,32,88,76,62,29.63,29.32,29.15,10,8,1,29,16,50,0.53,6,Rain,210
2013-1-31,39,28,17,34,17,10,86,75,59,29.85,29.65,29.23,10,3,0,30,19,39,0.07,8,Fog-Rain-Snow,261